Погода в Аглоне

Латвия     56°07′42″N   27°00′49″E
темп.,
°C
ветер,
м/с
пор.,
м/с
влажн.,
%
обл.,
%
осадки,
мм/ч
давл.,
гПа
погр.,
м
5 марта, пт
пт523:00−3сз26700 0.0 1010289
02:00−3з37680 0.0 1011518
05:00−3зсз596767 0.1 10111165
08:00−4сз6108482 0.3 1012965
11:00−2ссз694067 0.1 10131689
14:00−1ссз5103555 0.1 10152271
17:00−2ссз2542100 0.0 10161265
20:00−3с1353100 0.0 1018591
6 марта, сб
сб623:00−3с136298 0.0 1019554
02:00−5с256798 0.0 1020311
05:00−6сз267310 0.0 1021342
08:00−5зсз37695 0.0 1023474
11:00−2зсз46524 0.0 10221069
14:000з69452 0.0 10201447
17:00−1зюз61356100 0.0 10161437
20:00−1зюз71562100 0.0 10141339
7 марта, вс
вс723:00−1зюз81765100 0.0 10091390
02:00−1зюз81694100 0.3 10041224
05:00−1сз71477100 3.1 10021264
08:00−4сз5134683 3.2 10051640
11:00−2з7135120 0.0 10052013
14:00−2з7125660 0.6 10041750
17:00−2з71463100 0.6 10011967
20:00−3зсз81464100 1.1 10011601
8 марта, пн
пн823:00−6сз7137297 0.0 10041256
02:00−6ссз5107599 0.1 10071292
05:00−8ссз387019 0.0 1008737
08:00−8сз366910 0.0 1010623
11:00−5сз466533 0.0 10121117
14:00−5ссз565767 0.2 10131213
17:00−6с5764100 0.1 10151236
20:00−8с5973100 0.1 10181166
9 марта, вт
вт923:00−9с497290 0.0 1021820
02:00−10с377545 0.0 1022516
05:00−11ссз26840 0.0 1024298
08:00−10ссз25790 0.0 1025284
11:00−5сз24580 0.0 1026584
14:00−3зсз24480 0.0 1026885
17:00−3з36540 0.0 1026721
20:00−5зюз39704 0.0 1027328